Flag for Saudi Arabia Weather past 2 weeks in Makkah, Saudi Arabia

Now
91 °F

Sunny.


Feels Like: 96 °F
Forecast: 70 / 92 °F
Wind: 2 mph from South

Location: Mecca Airport

Current Time: Jan 30, 2015 at 5:09:23 PM

Latest Report: Jan 30, 2015 at 4:00 PM


Visibility: 10 mi

Pressure: 29.92 "Hg

Humidity: 46%

Dew point: 68 °F

Location of MakkahLocation

Historic Weather in Makkah — Graph

°F

Makkah temperature yesterday

Maximum temperature yesterday: 93 °F (at 2:00 PM)
Minimum temperature yesterday: 73 °F (at 6:00 AM)
Average temperature yesterday: 81 °F

Past Weeks' High & Low Weather Summary

 TemperatureHumidityPressure
High95 °F (Jan 21, 3:00 PM)100% (Jan 15, 6:00 PM)30.09 "Hg (Jan 15, 6:00 PM)
Low63 °F (Jan 21, 7:00 AM)19% (Jan 20, 2:00 PM)29.80 "Hg (Jan 28, 3:00 PM)
Average78 °F57%29.97 "Hg
* Reported Jan 15 4:00 PM — Jan 30 4:00 PM, Makkah, Weather by CustomWeather, © 2014

Note: Actual official high and low records may vary slightly from our data, if they occured in-between our weather recording intervals... More about our weather records

Advertising

Makkah weather history for previous 24 hours

 ConditionsComfort  
Time TempWeatherWind HumidityBarometerVisibility
4:00 PM
Jan 30
91 °FSunny.2 mph46%29.92 "Hg10 mi
3:00 PM93 °FSunny.5 mph36%29.92 "Hg10 mi
2:00 PM91 °FSunny.5 mph38%29.92 "Hg10 mi
1:00 PM90 °FSunny.No wind41%29.95 "Hg10 mi
12:00 PM88 °FSunny.No wind49%29.98 "Hg10 mi
11:00 AM84 °FSunny.No wind58%30.01 "Hg10 mi
10:00 AM79 °FSunny.No wind74%30.01 "Hg10 mi
9:00 AM73 °FSunny.No wind83%29.98 "Hg10 mi
8:00 AM72 °FSunny.No wind83%29.95 "Hg10 mi
7:00 AM72 °FSunny.No wind78%29.92 "Hg10 mi
6:00 AM72 °FClear.No wind78%29.89 "Hg10 mi
5:00 AM73 °FClear.No wind78%29.89 "Hg10 mi
4:00 AM73 °FClear.No wind78%29.89 "Hg6 mi
3:00 AM73 °FClear.No wind78%29.92 "Hg6 mi
2:00 AM75 °FClear.No wind74%29.92 "Hg6 mi
1:00 AM75 °FClear.No wind78%29.92 "Hg6 mi
12:00 AM77 °FClear.No wind74%29.89 "Hg6 mi
11:00 PM
Jan 29
79 °FClear.No wind74%29.89 "Hg6 mi
10:00 PM79 °FClear.2 mph70%29.89 "Hg6 mi
9:00 PM79 °FClear.2 mph70%29.92 "Hg6 mi
8:00 PM81 °FClear.2 mph66%29.89 "Hg6 mi
7:00 PM82 °FClear.3 mph62%29.86 "Hg5 mi
6:00 PM84 °FClear.2 mph62%29.86 "Hg5 mi
5:00 PM88 °FSunny.8 mph49%29.83 "Hg4 mi
Weather by CustomWeather, © 2014

See weather overviewHow to use our weather pages